[[{"header":{"parameterUnit":"m.s-1","parameterCategory":2,"la1":30.2991,"la2":30.254,"lo1":-89.0895,"lo2":-89.0444,"dy":0.0017,"dx":0.0017,"nx":28,"ny":28,"refTime":"2024-03-15T03:00:00:Z","depth":"0","parameterNumber":2,"parameterNumberName":"U-component_of_CURRENTS"},"data":[0,0,0,0,0,0,0,0,0,0,0,0,0,0,0,0,0,0,0,0,0,0,0,0,0,0,0,0,0,0,0,0,0,0,0,0,0,0,0,0,0,0,0,0,0,0,0,0,0,0,0,0,0,0,0,0,0,0,0.2278,0.2279,0,0.235,0.235,0.2351,0.2355,0.2355,0.2354,0.2354,0.2372,0.2373,0.2374,0,0,0,0,0,0,0,0,0,0,0,0,0,0.2156,0.2157,0.2278,0.2279,0.228,0.235,0.235,0.2351,0.2355,0.2355,0.2354,0.2353,0.2372,0.2373,0.2374,0,0,0,0,0,0,0,0,0,0,0,0,0,0.2213,0.2158,0.2277,0.2293,0.2295,0.2349,0.235,0.2351,0.2355,0.2355,0.2354,0.2353,0.2371,0.2373,0.2374,0.2401,0,0,0.2379,0.238,0,0,0,0,0,0,0,0,0.221,0.2217,0.2289,0.2292,0.2294,0.2345,0.2314,0.2366,0.2356,0.2329,0.2354,0.2353,0.2361,0.2363,0.2375,0.2402,0.2402,0.2379,0.238,0.2381,0.2381,0,0,0,0,0,0,0,0.2206,0.2215,0.2303,0.2291,0.2294,0.23,0.2307,0.2324,0.2346,0.2332,0.2333,0.2346,0.2361,0.2374,0.2375,0.2403,0.2379,0.238,0.2381,0.2382,0.2476,0.2478,0,0,0,0,0,0,0.2204,0.2211,0.2301,0.2306,0.2252,0.2303,0.2311,0.2327,0.2347,0.235,0.2346,0.2346,0.2371,0.2374,0.2376,0.2426,0.2381,0.2382,0.2383,0.2475,0.2477,0.2478,0,0,0,0,0,0,0.2201,0.2211,0.2298,0.2262,0.2274,0.2306,0.2325,0.2329,0.2347,0.2359,0.236,0.2361,0.2371,0.2374,0.2401,0.2426,0.2383,0.2384,0.2473,0.2475,0.2478,0.2514,0,0,0,0,0,0,0.2197,0.221,0.2223,0.2262,0.2276,0.2334,0.2326,0.2331,0.2358,0.2358,0.2372,0.2373,0.237,0.2399,0.2402,0.2427,0.2385,0.2471,0.2474,0.2477,0.2511,0.2517,0.2523,0,0,0,0,0,0.2192,0.2217,0.2223,0.2235,0.2292,0.2335,0.2342,0.236,0.2359,0.2372,0.2384,0.2372,0.242,0.2401,0.2405,0.2431,0.2469,0.2473,0.2477,0.2508,0.2516,0.2523,0,0,0,0,0,0,0.2176,0.2222,0.2229,0.2267,0.2298,0.2336,0.2353,0.2368,0.239,0.2385,0.2391,0.2394,0.2427,0.2428,0.2407,0.2469,0.2444,0.2449,0.2466,0.2474,0.248,0.2467,0.2387,0,0,0,0,0,0.2178,0.2208,0.2247,0.2279,0.2291,0.2323,0.2343,0.2356,0.2382,0.2391,0.2403,0.242,0.2446,0.2458,0.2474,0.2509,0.251,0.253,0.2536,0.2541,0.2535,0.2551,0.2557,0.249,0.249,0.249,0,0,0.218,0.2212,0.2228,0.2277,0.2298,0.2332,0.2332,0.2364,0.2396,0.2389,0.2428,0.2439,0.246,0.2497,0.2512,0.25,0.2569,0.2545,0.2549,0.2541,0.2555,0.2561,0.2567,0.2493,0.2492,0.2492,0,0,0.22,0.2225,0.225,0.2279,0.2318,0.2342,0.2353,0.2391,0.2407,0.2449,0.2454,0.2478,0.2519,0.2536,0.2552,0.2603,0.2599,0.2616,0.2638,0.2654,0.2659,0.2663,0.2703,0.2711,0.2621,0.2621,0.2621,0,0.2197,0.224,0.2264,0.2297,0.2325,0.2348,0.238,0.2409,0.2454,0.2468,0.2463,0.2525,0.2537,0.2587,0.2606,0.2615,0.263,0.2607,0.266,0.2664,0.2668,0.2707,0.2715,0.2623,0.2623,0.2623,0.2623,0,0.2231,0.2269,0.2287,0.2337,0.2369,0.24,0.2441,0.2469,0.2489,0.2514,0.2557,0.2575,0.2607,0.2625,0.2633,0.2676,0.2683,0.2663,0.2636,0.2676,0.2716,0.2724,0.2626,0.2626,0.2625,0.2625,0,0,0.2214,0.2293,0.2299,0.2326,0.239,0.2416,0.247,0.2519,0.2544,0.2581,0.2611,0.2663,0.266,0.2678,0.2689,0.2706,0.2758,0.2699,0.2699,0.2729,0.2816,0.2966,0.2988,0.2745,0.2746,0.2746,0.2843,0,0.2229,0.2291,0.2332,0.2392,0.2423,0.2465,0.2509,0.2556,0.2589,0.262,0.2645,0.2673,0.2687,0.2694,0.272,0.2739,0.2774,0.2734,0.2779,0.2781,0.2901,0.3001,0.2969,0.3065,0.285,0.2851,0.2852,0,0.2242,0.2285,0.2339,0.2412,0.2426,0.2461,0.2519,0.2564,0.2617,0.2636,0.2673,0.269,0.2738,0.2722,0.2797,0.2772,0.2803,0.2817,0.282,0.2947,0.2946,0.2985,0.3086,0.2957,0.2863,0.2862,0.2861,0,0.2207,0.229,0.2329,0.2356,0.2438,0.2459,0.2497,0.2557,0.2598,0.2635,0.2669,0.2711,0.2753,0.2776,0.2865,0.2814,0.2952,0.2877,0.3047,0.3057,0.3034,0.3043,0.3004,0.2927,0.2927,0.2927,0.2926,0,0.2208,0.2243,0.2309,0.2331,0.2363,0.2427,0.2461,0.2503,0.2569,0.2616,0.2667,0.2731,0.2769,0.2869,0.2888,0.3047,0.2986,0.3083,0.3104,0.3054,0.3064,0.2953,0.2904,0.293,0.2929,0.2929,0.2928,0,0.2169,0.222,0.2261,0.233,0.2347,0.2362,0.2442,0.2466,0.2545,0.2609,0.2627,0.2767,0.292,0.3013,0.309,0.3128,0.3145,0.3278,0.325,0.3269,0.3285,0.3242,0.3149,0.3048,0.3439,0.3444,0.3447,0,0.2156,0.2174,0.2232,0.2241,0.2268,0.2306,0.2326,0.2421,0.2464,0.2642,0.2672,0.2877,0.3034,0.328,0.3379,0.3506,0.3339,0.3539,0.3437,0.3327,0.329,0.3092,0.2994,0.3411,0.3414,0.3417,0.3419,0,0.2118,0.2132,0.2163,0.2198,0.2215,0.2243,0.2293,0.2339,0.246,0.2562,0.2746,0.29,0.3211,0.3379,0.3618,0.3674,0.3383,0.3602,0.3455,0.3274,0.308,0.298,0.3315,0.3442,0.344,0.3438,0.3437,0.3436,0.2079,0.21,0.2146,0.2171,0.2183,0.2209,0.2217,0.2306,0.242,0.2578,0.2748,0.2968,0.3278,0.3639,0.3668,0.3714,0.3598,0.3605,0.3566,0.3375,0.3266,0.3712,0.3893,0.3893,0.3893,0.3893,0.3893,0,0.2091,0.2126,0.2124,0.2164,0.2148,0.2179,0.2216,0.2221,0.2338,0.2536,0.2719,0.3091,0.332,0.3515,0.3719,0.3644,0.339,0.3547,0.3175,0.308,0.3454,0.3443,0.3574,0.3574,0.3574,0.3574,0.3574,0.3575,0.2111,0.214,0.2151,0.2139,0.2145,0.2124,0.2136,0.2164,0.2271,0.2497,0.2713,0.2926,0.3267,0.3539,0.3543,0.3484,0.3139,0.3099,0.2973,0.3175,0.317,0.3166,0.3138,0.3203,0.3203,0.244,0.2435,0.2431]},{"header":{"parameterUnit":"m.s-1","parameterCategory":2,"la1":30.2991,"la2":30.254,"lo1":-89.0895,"lo2":-89.0444,"dy":0.0017,"dx":0.0017,"nx":28,"ny":28,"refTime":"2024-03-15T03:00:00:Z","depth":"0","parameterNumber":3,"parameterNumberName":"V-component_of_CURRENTS"},"data":[0,0,0,0,0,0,0,0,0,0,0,0,0,0,0,0,0,0,0,0,0,0,0,0,0,0,0,0,0,0,0,0,0,0,0,0,0,0,0,0,0,0,0,0,0,0,0,0,0,0,0,0,0,0,0,0,0,0,-0.0508,-0.0508,0,-0.0554,-0.0554,-0.0554,-0.0598,-0.0598,-0.0599,-0.06,-0.0692,-0.0693,-0.0695,0,0,0,0,0,0,0,0,0,0,0,0,0,-0.0479,-0.0479,-0.0508,-0.0508,-0.0509,-0.0554,-0.0554,-0.0555,-0.0597,-0.0598,-0.0599,-0.06,-0.0691,-0.0693,-0.0695,0,0,0,0,0,0,0,0,0,0,0,0,0,-0.0502,-0.0479,-0.0507,-0.0538,-0.0541,-0.0554,-0.0554,-0.0555,-0.0597,-0.0598,-0.06,-0.0601,-0.069,-0.0693,-0.0696,-0.0689,0,0,-0.0703,-0.0705,0,0,0,0,0,0,0,0,-0.0501,-0.0503,-0.0533,-0.0536,-0.054,-0.0573,-0.0578,-0.0603,-0.0597,-0.0573,-0.06,-0.0601,-0.0657,-0.0662,-0.0664,-0.0693,-0.0697,-0.0704,-0.0705,-0.0706,-0.0707,0,0,0,0,0,0,0,-0.0499,-0.0501,-0.0523,-0.0533,-0.0538,-0.0557,-0.0561,-0.0582,-0.0607,-0.0575,-0.0579,-0.0588,-0.0659,-0.0662,-0.0667,-0.0698,-0.0704,-0.0706,-0.0708,-0.0709,-0.0768,-0.0768,0,0,0,0,0,0,-0.0496,-0.0499,-0.0522,-0.0525,-0.0525,-0.0557,-0.0561,-0.0559,-0.0606,-0.0615,-0.0587,-0.059,-0.0657,-0.0664,-0.0671,-0.0692,-0.0706,-0.0709,-0.071,-0.0768,-0.0768,-0.0768,0,0,0,0,0,0,-0.0495,-0.0497,-0.052,-0.0516,-0.0521,-0.0556,-0.0554,-0.056,-0.0564,-0.0615,-0.0624,-0.0586,-0.0658,-0.0667,-0.0694,-0.0695,-0.071,-0.0712,-0.0768,-0.0768,-0.0768,-0.0717,0,0,0,0,0,0,-0.0493,-0.0496,-0.0484,-0.0515,-0.0521,-0.0513,-0.0553,-0.056,-0.0569,-0.0573,-0.0616,-0.0626,-0.066,-0.0689,-0.0696,-0.0699,-0.0714,-0.0768,-0.0768,-0.0768,-0.0719,-0.0715,-0.0712,0,0,0,0,0,-0.0492,-0.0461,-0.0482,-0.0485,-0.0506,-0.0512,-0.0515,-0.0544,-0.0567,-0.0554,-0.0598,-0.0625,-0.0695,-0.0691,-0.0699,-0.0702,-0.0768,-0.0768,-0.0768,-0.072,-0.0716,-0.0712,0,0,0,0,0,0,-0.0431,-0.0465,-0.0488,-0.0467,-0.0487,-0.052,-0.0508,-0.0536,-0.0558,-0.0565,-0.062,-0.0632,-0.0657,-0.0684,-0.0678,-0.0721,-0.0737,-0.0739,-0.0698,-0.0695,-0.0692,-0.0697,-0.0717,0,0,0,0,0,-0.0416,-0.0408,-0.0445,-0.0428,-0.0435,-0.0473,-0.0478,-0.0499,-0.0529,-0.0539,-0.0579,-0.0623,-0.0661,-0.0681,-0.0711,-0.0727,-0.0748,-0.0737,-0.0734,-0.0731,-0.0741,-0.0779,-0.078,-0.0768,-0.0768,-0.0768,0,0,-0.0388,-0.0405,-0.0401,-0.0416,-0.0433,-0.0442,-0.0477,-0.0475,-0.0493,-0.0546,-0.0572,-0.0608,-0.0662,-0.0687,-0.0701,-0.0711,-0.0737,-0.0731,-0.0728,-0.074,-0.0779,-0.078,-0.0782,-0.0768,-0.0768,-0.0768,0,0,-0.0336,-0.0343,-0.0329,-0.0345,-0.037,-0.0397,-0.0397,-0.0432,-0.0453,-0.048,-0.0532,-0.0569,-0.0617,-0.0663,-0.0693,-0.0689,-0.0717,-0.0697,-0.0689,-0.0724,-0.0726,-0.0727,-0.0717,-0.0718,-0.0698,-0.0698,-0.0698,0,-0.0303,-0.0301,-0.0321,-0.032,-0.0339,-0.0379,-0.0381,-0.0402,-0.0445,-0.0468,-0.048,-0.0572,-0.0611,-0.0667,-0.0672,-0.0683,-0.0694,-0.0696,-0.072,-0.0722,-0.0725,-0.0714,-0.0716,-0.0696,-0.0696,-0.0696,-0.0696,0,-0.0256,-0.026,-0.0248,-0.0275,-0.0287,-0.0288,-0.0335,-0.0349,-0.0387,-0.0423,-0.0473,-0.0528,-0.0586,-0.0605,-0.0642,-0.0685,-0.068,-0.0707,-0.0726,-0.0723,-0.0711,-0.0714,-0.0692,-0.0693,-0.0694,-0.0694,0,0,-0.0182,-0.0213,-0.0213,-0.0231,-0.027,-0.0276,-0.0301,-0.0343,-0.0359,-0.0408,-0.0438,-0.0517,-0.0547,-0.0584,-0.0631,-0.0673,-0.0688,-0.0698,-0.0701,-0.0682,-0.0734,-0.0622,-0.0614,-0.0721,-0.0722,-0.0723,-0.0704,0,-0.0151,-0.0149,-0.0175,-0.0185,-0.0196,-0.0246,-0.0263,-0.0303,-0.0342,-0.037,-0.0444,-0.0479,-0.0539,-0.0556,-0.0612,-0.0674,-0.0701,-0.0689,-0.0747,-0.0748,-0.0645,-0.0617,-0.0533,-0.0501,-0.0708,-0.0708,-0.0708,0,-0.0112,-0.0122,-0.0126,-0.0164,-0.017,-0.0178,-0.0222,-0.0242,-0.0296,-0.0321,-0.0379,-0.0424,-0.0498,-0.0536,-0.0646,-0.0636,-0.0682,-0.0727,-0.0728,-0.065,-0.0643,-0.0548,-0.0499,-0.0735,-0.0713,-0.0713,-0.0713,0,-0.0074,-0.0093,-0.0102,-0.0115,-0.0153,-0.0162,-0.0181,-0.0226,-0.0221,-0.0283,-0.0262,-0.0382,-0.0381,-0.0509,-0.058,-0.0626,-0.0665,-0.0739,-0.0677,-0.0668,-0.0622,-0.0607,-0.0807,-0.0806,-0.0806,-0.0806,-0.0806,0,-0.0048,-0.0051,-0.0081,-0.0085,-0.0074,-0.0121,-0.0107,-0.0141,-0.0153,-0.0093,-0.0222,-0.0161,-0.0372,-0.0405,-0.0541,-0.0577,-0.0628,-0.0663,-0.0659,-0.0595,-0.0578,-0.0802,-0.0932,-0.0805,-0.0805,-0.0805,-0.0805,0,-0.0005,-0.0033,-0.0032,-0.0058,-0.0056,-0.0046,-0.0026,-0.0004,-0.0028,0.0054,0.0054,0.0014,-0.0006,-0.018,-0.0326,-0.0452,-0.0633,-0.055,-0.0427,-0.0409,-0.0606,-0.0733,-0.0851,-0.0938,-0.0523,-0.052,-0.0518,0,0.0022,0.0023,0.0014,0.0043,0.004,0.0058,0.009,0.0061,0.0125,0.0215,0.0293,0.0298,0.0411,0.0236,-0.0021,-0.0215,-0.0452,-0.0296,-0.0389,-0.0591,-0.0734,-0.0817,-0.0892,-0.0302,-0.0298,-0.0295,-0.0292,0,0.0094,0.0086,0.0101,0.0159,0.0196,0.0238,0.0303,0.0385,0.0421,0.0549,0.0771,0.0873,0.0742,0.0624,0.0326,0.0149,-0.0429,-0.0232,-0.0506,-0.0618,-0.0664,-0.0751,-0.0322,-0.0263,-0.0266,-0.0268,-0.027,-0.0271,0.0185,0.0223,0.0263,0.0327,0.0373,0.0485,0.0596,0.0721,0.0919,0.1203,0.1218,0.1475,0.1144,0.0782,0.0476,-0.0117,-0.0168,-0.0314,-0.0457,-0.0529,-0.0605,-0.007,0.0032,0.003,0.0029,0.0029,0.0028,0,0.0349,0.0396,0.0448,0.0556,0.0661,0.0629,0.0803,0.0968,0.1314,0.1567,0.1835,0.1873,0.1479,0.0919,0.0131,-0.0294,-0.0507,-0.0562,-0.0745,-0.0821,-0.0399,-0.0385,-0.0291,-0.0291,-0.0291,-0.0291,-0.029,-0.029,0.0462,0.0571,0.0592,0.0826,0.0905,0.1086,0.1218,0.1467,0.1693,0.2118,0.2329,0.2457,0.1974,0.0553,-0.0468,-0.0708,-0.1089,-0.1064,-0.131,-0.1124,-0.1116,-0.1109,-0.1132,-0.1197,-0.1198,-0.1664,-0.167,-0.1673]}],[{"header":{"parameterUnit":"m.s-1","parameterCategory":2,"la1":30.2991,"la2":30.254,"lo1":-89.0895,"lo2":-89.0444,"dy":0.0017,"dx":0.0017,"nx":28,"ny":28,"refTime":"2024-03-15T03:00:00:Z","depth":"2","parameterNumber":2,"parameterNumberName":"U-component_of_CURRENTS"},"data":[0,0,0,0,0,0,0,0,0,0,0,0,0,0,0,0,0,0,0,0,0,0,0,0,0,0,0,0,0,0,0,0,0,0,0,0,0,0,0,0,0,0,0,0,0,0,0,0,0,0,0,0,0,0,0,0,0,0,0.194,0.1941,0,0.1984,0.1985,0.1985,0.2,0.2001,0.2001,0.2001,0.2042,0.2043,0.2044,0,0,0,0,0,0,0,0,0,0,0,0,0,0.1874,0.1874,0.194,0.1941,0.1942,0.1984,0.1985,0.1985,0.2,0.2001,0.2001,0.2001,0.2042,0.2043,0.2044,0,0,0,0,0,0,0,0,0,0,0,0,0,0.1905,0.1875,0.194,0.1958,0.196,0.1984,0.1985,0.1985,0.2,0.2001,0.2001,0.2001,0.2042,0.2043,0.2044,0.2047,0,0,0.2049,0.2049,0,0,0,0,0,0,0,0,0.1903,0.1907,0.1954,0.1957,0.1959,0.1991,0.1977,0.2007,0.2,0.1981,0.2001,0.2001,0.2027,0.203,0.2032,0.2049,0.2051,0.2049,0.205,0.205,0.2051,0,0,0,0,0,0,0,0.1901,0.1905,0.1954,0.1955,0.1958,0.1965,0.1969,0.1982,0.1999,0.1983,0.1985,0.1996,0.2028,0.2031,0.2033,0.2052,0.2049,0.205,0.2051,0.2051,0.2115,0.2116,0,0,0,0,0,0,0.1903,0.1903,0.1953,0.1956,0.1936,0.1966,0.1971,0.1977,0.1999,0.2004,0.1995,0.1996,0.2028,0.2031,0.2035,0.2107,0.205,0.2052,0.2052,0.2114,0.2115,0.2116,0,0,0,0,0,0,0.1901,0.1907,0.1951,0.1934,0.194,0.1968,0.1974,0.1978,0.1997,0.2009,0.2013,0.2014,0.2028,0.2033,0.206,0.2106,0.2052,0.2053,0.2113,0.2115,0.2116,0.2209,0,0,0,0,0,0,0.1899,0.1905,0.1912,0.1934,0.1941,0.1975,0.1974,0.1979,0.2005,0.2006,0.2026,0.2029,0.2029,0.2058,0.2061,0.2107,0.2055,0.2112,0.2114,0.2115,0.2205,0.2213,0.2221,0,0,0,0,0,0.1896,0.1906,0.1912,0.1919,0.1949,0.1976,0.1981,0.1998,0.2005,0.2016,0.203,0.2029,0.207,0.206,0.2063,0.2111,0.2111,0.2113,0.2115,0.2201,0.2212,0.222,0,0,0,0,0,0,0.1879,0.191,0.1917,0.1935,0.1959,0.1981,0.1997,0.2008,0.2028,0.2031,0.204,0.2044,0.208,0.2077,0.2064,0.213,0.2091,0.2094,0.2155,0.2165,0.2172,0.2184,0.2056,0,0,0,0,0,0.1879,0.1895,0.1924,0.1939,0.1955,0.1978,0.1994,0.2004,0.2025,0.2034,0.205,0.2066,0.2088,0.2111,0.2114,0.2159,0.2166,0.2189,0.2197,0.2204,0.2213,0.2279,0.2295,0.2123,0.2123,0.2123,0,0,0.1875,0.1896,0.1904,0.1937,0.1958,0.1988,0.1988,0.2015,0.2042,0.2036,0.2076,0.2086,0.2099,0.2143,0.2161,0.2153,0.2251,0.2206,0.2213,0.2218,0.2283,0.23,0.2315,0.2124,0.2124,0.2124,0,0,0.188,0.1898,0.1916,0.1941,0.1979,0.1999,0.2012,0.2043,0.206,0.2094,0.2101,0.2144,0.2167,0.2203,0.2221,0.2275,0.2278,0.2274,0.2346,0.2411,0.2427,0.244,0.2456,0.2471,0.2295,0.2296,0.2296,0,0.1876,0.1902,0.1925,0.1955,0.1985,0.2009,0.2042,0.2064,0.2097,0.2137,0.2113,0.2203,0.2201,0.2299,0.2307,0.2298,0.2316,0.2316,0.2425,0.2439,0.2452,0.2465,0.248,0.23,0.23,0.2299,0.2299,0,0.1893,0.1923,0.1941,0.1989,0.2023,0.2053,0.2094,0.2127,0.2153,0.2194,0.2279,0.229,0.236,0.2363,0.2347,0.2452,0.2427,0.2418,0.2409,0.2475,0.2483,0.2497,0.2307,0.2305,0.2304,0.2303,0,0,0.1865,0.1938,0.1945,0.1981,0.2045,0.2075,0.2134,0.2212,0.228,0.2318,0.2417,0.2456,0.2494,0.2514,0.2524,0.2571,0.2652,0.2535,0.2536,0.2564,0.2772,0.2722,0.2732,0.2676,0.2679,0.2681,0.2737,0,0.1875,0.1937,0.1972,0.2039,0.2082,0.2134,0.2198,0.2274,0.2337,0.2432,0.2495,0.2575,0.2547,0.2589,0.2643,0.265,0.2695,0.2636,0.2691,0.2692,0.2653,0.275,0.2542,0.2573,0.275,0.2753,0.2754,0,0.188,0.1928,0.1993,0.2091,0.2116,0.2162,0.2289,0.235,0.2493,0.2547,0.2667,0.2708,0.281,0.2749,0.2849,0.2817,0.2801,0.2791,0.2794,0.2728,0.2671,0.2537,0.2591,0.2777,0.2775,0.2774,0.2772,0,0.1855,0.1942,0.1998,0.2028,0.214,0.2189,0.2261,0.2399,0.2473,0.2636,0.2703,0.2846,0.2909,0.2945,0.2951,0.2904,0.3034,0.2968,0.2911,0.2905,0.2727,0.2701,0.3029,0.3029,0.3029,0.3029,0.3028,0,0.1856,0.1901,0.1994,0.2023,0.2121,0.2199,0.232,0.2411,0.2553,0.2655,0.2771,0.2856,0.2959,0.3044,0.3019,0.3038,0.3108,0.2944,0.2938,0.2749,0.2726,0.2897,0.2881,0.3031,0.303,0.303,0.3029,0,0.1834,0.1884,0.1954,0.2066,0.211,0.2187,0.2337,0.2414,0.2553,0.2681,0.2729,0.2898,0.2995,0.3083,0.3151,0.312,0.3134,0.3113,0.287,0.2834,0.2924,0.2912,0.3032,0.3031,0.303,0.303,0.3029,0,0.1846,0.1863,0.1975,0.2017,0.207,0.219,0.2262,0.2411,0.2472,0.2681,0.2713,0.2881,0.2944,0.3075,0.3089,0.3099,0.3133,0.2897,0.2761,0.2954,0.2936,0.2924,0.2913,0.2545,0.2541,0.2537,0.2534,0,0.1861,0.1878,0.1958,0.2021,0.2088,0.2165,0.2261,0.2303,0.2458,0.2542,0.2638,0.2711,0.2857,0.2815,0.2899,0.2858,0.2884,0.282,0.3136,0.2583,0.2502,0.2482,0.2486,0.2502,0.2505,0.2508,0.2509,0.2511,0.191,0.1939,0.2,0.2062,0.2104,0.211,0.2142,0.2203,0.2278,0.2349,0.2466,0.2503,0.2592,0.2592,0.2544,0.2541,0.2692,0.2565,0.2574,0.2586,0.2527,0.2451,0.2427,0.2429,0.2432,0.2434,0.2435,0,0.1949,0.1974,0.2022,0.2061,0.2015,0.2077,0.2111,0.2071,0.2078,0.2186,0.2221,0.2083,0.2099,0.2192,0.2136,0.2145,0.2088,0.2057,0.1965,0.2001,0.2032,0.194,0.1687,0.1684,0.1681,0.1679,0,0,0.199,0.2023,0.2013,0.1958,0.1954,0.1896,0.1891,0.1837,0.1866,0.1816,0.1845,0.2002,0.2137,0.1878,0.1866,0.1772,0.186,0.1704,0.2316,0.2245,0.2272,0.2352,0.2256,0,0,0,0,0]},{"header":{"parameterUnit":"m.s-1","parameterCategory":2,"la1":30.2991,"la2":30.254,"lo1":-89.0895,"lo2":-89.0444,"dy":0.0017,"dx":0.0017,"nx":28,"ny":28,"refTime":"2024-03-15T03:00:00:Z","depth":"2","parameterNumber":3,"parameterNumberName":"V-component_of_CURRENTS"},"data":[0,0,0,0,0,0,0,0,0,0,0,0,0,0,0,0,0,0,0,0,0,0,0,0,0,0,0,0,0,0,0,0,0,0,0,0,0,0,0,0,0,0,0,0,0,0,0,0,0,0,0,0,0,0,0,0,0,0,-0.0003,-0.0004,0,-0.0072,-0.0073,-0.0074,-0.0114,-0.0114,-0.0114,-0.0114,-0.0219,-0.0222,-0.0224,0,0,0,0,0,0,0,0,0,0,0,0,0,0.0059,0.0058,-0.0003,-0.0004,-0.0005,-0.0072,-0.0073,-0.0074,-0.0114,-0.0114,-0.0114,-0.0114,-0.0218,-0.0221,-0.0225,0,0,0,0,0,0,0,0,0,0,0,0,0,0.0015,0.0058,-0.0003,-0.0032,-0.0035,-0.0071,-0.0073,-0.0074,-0.0114,-0.0114,-0.0114,-0.0114,-0.0217,-0.0221,-0.0225,-0.0248,0,0,-0.0238,-0.0239,0,0,0,0,0,0,0,0,0.0017,0.0012,-0.0027,-0.003,-0.0034,-0.0083,-0.0089,-0.0134,-0.0114,-0.0085,-0.0114,-0.0114,-0.0176,-0.0184,-0.0197,-0.0253,-0.0258,-0.0238,-0.0241,-0.0242,-0.0243,0,0,0,0,0,0,0,0.002,0.0015,-0.0031,-0.0028,-0.0032,-0.0053,-0.0059,-0.0098,-0.0131,-0.0087,-0.009,-0.0096,-0.0179,-0.0193,-0.02,-0.0259,-0.0238,-0.0242,-0.0244,-0.0246,-0.0315,-0.0315,0,0,0,0,0,0,0.0033,0.0018,-0.0029,-0.0033,-0.0007,-0.0054,-0.0061,-0.0068,-0.013,-0.0138,-0.0096,-0.0098,-0.0186,-0.0195,-0.0204,-0.0229,-0.0242,-0.0246,-0.0248,-0.0316,-0.0315,-0.0314,0,0,0,0,0,0,0.0034,0.0029,-0.0026,-0.0008,-0.0017,-0.0055,-0.0063,-0.0069,-0.0086,-0.0135,-0.0145,-0.0106,-0.0187,-0.0198,-0.0228,-0.0234,-0.0248,-0.0252,-0.0317,-0.0316,-0.0315,-0.0284,0,0,0,0,0,0,0.0036,0.003,0.0026,-0.0008,-0.0017,-0.0041,-0.0063,-0.0071,-0.0089,-0.0092,-0.0147,-0.0157,-0.0188,-0.0222,-0.0232,-0.024,-0.0255,-0.0317,-0.0316,-0.0315,-0.0285,-0.0282,-0.0278,0,0,0,0,0,0.0039,0.0039,0.0026,0.002,-0.0021,-0.004,-0.0047,-0.0075,-0.0089,-0.0092,-0.0125,-0.0155,-0.0222,-0.0225,-0.0237,-0.0246,-0.0318,-0.0316,-0.0315,-0.0287,-0.0282,-0.0279,0,0,0,0,0,0,0.0062,0.0033,0.0019,0.001,-0.0011,-0.0047,-0.0053,-0.0074,-0.0103,-0.0105,-0.0154,-0.0165,-0.0188,-0.0218,-0.022,-0.0259,-0.0273,-0.0274,-0.0247,-0.0243,-0.024,-0.0204,-0.0258,0,0,0,0,0,0.0066,0.006,0.0029,0.0023,0.0014,-0.002,-0.0034,-0.005,-0.0078,-0.0092,-0.013,-0.0165,-0.0193,-0.0218,-0.0242,-0.0275,-0.029,-0.0284,-0.0281,-0.0278,-0.0254,-0.0303,-0.0303,-0.031,-0.031,-0.031,0,0,0.0071,0.0058,0.0052,0.0028,0.0009,0.0006,-0.0029,-0.004,-0.0035,-0.0099,-0.011,-0.0152,-0.0194,-0.0219,-0.0234,-0.0249,-0.0279,-0.0276,-0.0273,-0.0251,-0.0302,-0.0301,-0.0301,-0.0309,-0.0309,-0.0309,0,0,0.0091,0.007,0.0075,0.0065,0.0045,0.0025,0.0024,-0.001,-0.0017,-0.0035,-0.0073,-0.0113,-0.0163,-0.0194,-0.0216,-0.0208,-0.0251,-0.0225,-0.0196,-0.0244,-0.0244,-0.0244,-0.0244,-0.0245,-0.0235,-0.0235,-0.0235,0,0.0099,0.0107,0.0073,0.0082,0.0087,0.0039,0.0057,0.0038,0.0001,-0.0007,-0.0026,-0.0103,-0.0143,-0.0179,-0.0173,-0.0201,-0.0223,-0.0213,-0.0241,-0.0242,-0.0242,-0.0242,-0.0243,-0.0234,-0.0234,-0.0234,-0.0234,0,0.0127,0.0136,0.0142,0.014,0.0135,0.0145,0.0122,0.0117,0.0094,0.0058,0.0025,-0.0036,-0.0091,-0.0112,-0.0141,-0.0172,-0.0181,-0.0225,-0.0253,-0.024,-0.024,-0.0242,-0.0231,-0.0232,-0.0232,-0.0233,0,0,0.0145,0.0161,0.0164,0.0194,0.0177,0.0186,0.0195,0.0185,0.0188,0.0129,0.0115,0.0055,-0.0013,-0.0039,-0.0101,-0.0138,-0.0161,-0.0182,-0.0185,-0.0182,-0.0239,-0.0261,-0.0265,-0.0228,-0.0229,-0.0229,-0.023,0,0.0184,0.0235,0.0224,0.0276,0.0307,0.0285,0.029,0.027,0.0244,0.0209,0.0128,0.0079,0.0021,-0.0019,-0.007,-0.0146,-0.0167,-0.0153,-0.025,-0.0251,-0.0275,-0.0268,-0.0249,-0.0251,-0.0232,-0.0232,-0.0233,0,0.022,0.026,0.0321,0.037,0.0377,0.0385,0.0409,0.0401,0.0332,0.0309,0.023,0.0148,0.0066,0.0019,-0.0096,-0.0094,-0.0147,-0.0193,-0.0197,-0.0225,-0.0277,-0.0265,-0.0255,-0.0236,-0.0235,-0.0235,-0.0235,0,0.028,0.0333,0.0397,0.0414,0.0439,0.0463,0.0454,0.0417,0.0427,0.0346,0.0341,0.0204,0.0146,0.0039,-0.0079,-0.0096,-0.0185,-0.0232,-0.0282,-0.0283,-0.0284,-0.0285,-0.0275,-0.0275,-0.0275,-0.0275,-0.0275,0,0.0339,0.0392,0.0429,0.047,0.0518,0.0509,0.0538,0.0516,0.0488,0.0499,0.0368,0.0374,0.0147,0.0057,-0.0053,-0.0175,-0.0177,-0.0256,-0.0291,-0.027,-0.0269,-0.0277,-0.0277,-0.0275,-0.0275,-0.0275,-0.0275,0,0.0386,0.0412,0.0492,0.0544,0.0546,0.0571,0.059,0.062,0.0584,0.0604,0.0581,0.0481,0.0367,0.0173,0.0005,-0.0125,-0.0246,-0.0274,-0.0213,-0.0242,-0.0307,-0.0305,-0.0335,-0.0336,-0.0336,-0.0337,-0.0338,0,0.0408,0.0458,0.0538,0.0573,0.0592,0.0625,0.0646,0.0642,0.0696,0.0703,0.0735,0.0625,0.057,0.03,0.004,-0.0178,-0.0197,-0.0289,-0.0323,-0.0284,-0.0316,-0.0313,-0.031,-0.0296,-0.0297,-0.0297,-0.0297,0,0.045,0.048,0.0531,0.061,0.0657,0.0726,0.0774,0.0839,0.0857,0.0907,0.0959,0.0911,0.0647,0.0391,0.0054,-0.0084,-0.0275,-0.0298,-0.029,-0.0294,-0.0252,-0.0282,-0.028,-0.0298,-0.0298,-0.0298,-0.0298,-0.0298,0.0442,0.0486,0.0552,0.0621,0.07,0.0813,0.0874,0.0968,0.1056,0.1123,0.1105,0.1045,0.075,0.0311,0.0041,-0.0255,-0.0239,-0.0344,-0.0342,-0.034,-0.0345,-0.0309,-0.0362,-0.0362,-0.0362,-0.0363,-0.0363,0,0.0422,0.0477,0.056,0.0655,0.077,0.0804,0.0953,0.1034,0.116,0.1216,0.1234,0.0978,0.0693,0.0383,-0.006,-0.0327,-0.0348,-0.0395,-0.0365,-0.0362,-0.0359,-0.0365,-0.0388,-0.0389,-0.0389,-0.039,0,0,0.0403,0.0463,0.0523,0.0677,0.0768,0.0914,0.1007,0.1131,0.1216,0.127,0.1242,0.1141,0.0781,0.0461,0.0103,-0.0141,-0.0188,-0.0186,-0.0139,-0.0057,-0.0052,-0.0304,-0.0306,0,0,0,0,0]}],[{"header":{"parameterUnit":"m.s-1","parameterCategory":2,"la1":30.2991,"la2":30.254,"lo1":-89.0895,"lo2":-89.0444,"dy":0.0017,"dx":0.0017,"nx":28,"ny":28,"refTime":"2024-03-15T03:00:00:Z","depth":"4","parameterNumber":2,"parameterNumberName":"U-component_of_CURRENTS"},"data":[0,0,0,0,0,0,0,0,0,0,0,0,0,0,0,0,0,0,0,0,0,0,0,0,0,0,0,0,0,0,0,0,0,0,0,0,0,0,0,0,0,0,0,0,0,0,0,0,0,0,0,0,0,0,0,0,0,0,0.1112,0.1113,0,0.1179,0.1179,0.118,0.122,0.1221,0.1221,0.1221,0.1295,0.1297,0.1298,0,0,0,0,0,0,0,0,0,0,0,0,0,0.1026,0.1027,0.1112,0.1113,0.1114,0.1179,0.1179,0.118,0.122,0.1221,0.1221,0.1222,0.1295,0.1297,0.1299,0,0,0,0,0,0,0,0,0,0,0,0,0,0.1072,0.1027,0.1112,0.1144,0.1148,0.1178,0.1179,0.118,0.122,0.1221,0.1221,0.1222,0.1294,0.1297,0.1299,0.13,0,0,0.1306,0.1307,0,0,0,0,0,0,0,0,0.1069,0.1075,0.1138,0.1142,0.1146,0.1194,0.1176,0.1222,0.122,0.119,0.1221,0.1222,0.1264,0.1268,0.1276,0.1303,0.1307,0.1306,0.1308,0.1309,0.1309,0,0,0,0,0,0,0,0.1066,0.1072,0.1136,0.1139,0.1144,0.1157,0.1164,0.1185,0.122,0.1192,0.1196,0.1208,0.1265,0.1273,0.1278,0.1308,0.1306,0.1308,0.131,0.1311,0.1406,0.1407,0,0,0,0,0,0,0.1063,0.1069,0.1134,0.1138,0.1112,0.1158,0.1166,0.1176,0.122,0.1228,0.1207,0.1209,0.1269,0.1275,0.128,0.1341,0.1309,0.1311,0.1312,0.1405,0.1406,0.1407,0,0,0,0,0,0,0.106,0.1068,0.1131,0.1107,0.1117,0.116,0.117,0.1177,0.1212,0.1231,0.1239,0.1239,0.127,0.1277,0.1317,0.1342,0.1312,0.1314,0.1403,0.1405,0.1407,0.1426,0,0,0,0,0,0,0.1057,0.1066,0.1084,0.1107,0.1118,0.1165,0.117,0.1178,0.1218,0.1222,0.1261,0.1267,0.1271,0.1314,0.1319,0.1345,0.1316,0.1402,0.1404,0.1406,0.1424,0.1429,0.1432,0,0,0,0,0,0.1054,0.1071,0.1084,0.1093,0.1137,0.1166,0.1173,0.1203,0.1219,0.1237,0.1262,0.1267,0.1331,0.1316,0.1323,0.135,0.1401,0.1404,0.1406,0.1423,0.1428,0.1432,0,0,0,0,0,0,0.1044,0.1078,0.1092,0.112,0.1149,0.1174,0.1199,0.1219,0.1253,0.1265,0.1279,0.1287,0.1332,0.1339,0.1322,0.1384,0.1368,0.1372,0.1379,0.1384,0.1387,0.1391,0.1318,0,0,0,0,0,0.1049,0.1074,0.1103,0.113,0.1145,0.1177,0.1199,0.122,0.1248,0.1266,0.1292,0.1319,0.1343,0.1362,0.1384,0.1417,0.1436,0.144,0.1444,0.1447,0.1455,0.1507,0.1517,0.1416,0.1416,0.1416,0,0,0.1052,0.1077,0.1091,0.1131,0.1155,0.1177,0.1192,0.1232,0.1255,0.1267,0.1314,0.1338,0.1356,0.1391,0.1413,0.1404,0.1485,0.145,0.1453,0.146,0.1511,0.1521,0.1529,0.1417,0.1417,0.1417,0,0,0.1061,0.1094,0.1112,0.1137,0.1182,0.12,0.1217,0.1257,0.1282,0.1325,0.1339,0.1377,0.1419,0.1432,0.1443,0.1484,0.1505,0.1499,0.1523,0.1573,0.1581,0.1589,0.162,0.1631,0.15,0.15,0.15,0,0.1066,0.1088,0.1123,0.1145,0.1167,0.1211,0.123,0.126,0.131,0.1332,0.1346,0.1417,0.1435,0.1471,0.1488,0.1493,0.1524,0.15,0.1578,0.1586,0.1594,0.1624,0.1635,0.1501,0.1501,0.1501,0.1501,0,0.108,0.1103,0.1118,0.1157,0.1187,0.1214,0.1255,0.1294,0.1333,0.1361,0.1422,0.1451,0.1494,0.1507,0.1512,0.1575,0.158,0.1576,0.1564,0.1605,0.1634,0.1646,0.1503,0.1503,0.1502,0.1502,0,0,0.1064,0.1116,0.112,0.1137,0.1195,0.1218,0.1263,0.1308,0.1346,0.1402,0.1453,0.1496,0.1531,0.1547,0.1565,0.1609,0.1687,0.1625,0.1627,0.1652,0.18,0.1688,0.1689,0.1708,0.171,0.1712,0.1796,0,0.106,0.1088,0.1123,0.1155,0.1169,0.1224,0.1262,0.1316,0.137,0.1433,0.1479,0.154,0.154,0.158,0.1623,0.1682,0.1721,0.1665,0.176,0.1762,0.1655,0.17,0.172,0.1805,0.1807,0.1809,0.181,0,0.1053,0.1072,0.1098,0.1147,0.1162,0.1198,0.1271,0.1318,0.1408,0.1454,0.1523,0.1572,0.1651,0.165,0.1759,0.1732,0.1772,0.1805,0.1808,0.1705,0.1671,0.1757,0.1831,0.183,0.1828,0.1827,0.1825,0,0.1008,0.1052,0.1071,0.109,0.1157,0.1192,0.1242,0.1327,0.1379,0.1489,0.1549,0.1629,0.1702,0.1766,0.1835,0.1819,0.1951,0.193,0.1857,0.1849,0.1916,0.1907,0.2004,0.2004,0.2004,0.2004,0.2004,0,0.0975,0.099,0.1057,0.1068,0.1108,0.1175,0.1242,0.1302,0.1408,0.1474,0.1571,0.1635,0.1744,0.1825,0.1866,0.1896,0.1976,0.1871,0.1868,0.1921,0.1912,0.1924,0.1914,0.2007,0.2006,0.2006,0.2005,0,0.0912,0.0958,0.0982,0.1054,0.1088,0.1122,0.1241,0.1286,0.1402,0.1499,0.1545,0.1676,0.1779,0.1858,0.1968,0.1929,0.1971,0.1957,0.2012,0.2009,0.1827,0.1817,0.1884,0.188,0.1878,0.1875,0.1874,0,0.0875,0.0883,0.0963,0.0992,0.103,0.1102,0.1154,0.1271,0.1328,0.1504,0.1543,0.1685,0.1758,0.1825,0.1906,0.1963,0.1944,0.1943,0.1876,0.1827,0.1818,0.1812,0.1806,0.1869,0.1869,0.1868,0.1867,0,0.0798,0.0841,0.0862,0.0929,0.0985,0.1035,0.1123,0.1158,0.13,0.142,0.1515,0.1583,0.169,0.1762,0.1819,0.1852,0.1931,0.1914,0.1919,0.1857,0.181,0.1803,0.18,0.1858,0.1859,0.186,0.1861,0,0.0738,0.0736,0.0793,0.0844,0.0917,0.0955,0.1005,0.1088,0.1165,0.1362,0.1387,0.1543,0.1667,0.1706,0.1759,0.1783,0.1759,0.1701,0.1716,0.1728,0.1637,0.1553,0.1529,0,0,0,0,0,0.0672,0.0677,0.0711,0.0761,0.0838,0.0887,0.0984,0.1042,0.1185,0.1219,0.1303,0.1397,0.149,0.1571,0.1567,0.1684,0.1754,0.1671,0.169,0.1806,0.1817,0.1725,0,0,0,0,0,0,0.0623,0.0656,0.0674,0.07,0.0731,0.0799,0.0854,0.0941,0.0976,0.113,0.1194,0.1316,0.1429,0.1484,0.1543,0.1567,0.1551,0.177,0.1767,0.18,0.181,0.1818,0.1727,0,0,0,0,0]},{"header":{"parameterUnit":"m.s-1","parameterCategory":2,"la1":30.2991,"la2":30.254,"lo1":-89.0895,"lo2":-89.0444,"dy":0.0017,"dx":0.0017,"nx":28,"ny":28,"refTime":"2024-03-15T03:00:00:Z","depth":"4","parameterNumber":3,"parameterNumberName":"V-component_of_CURRENTS"},"data":[0,0,0,0,0,0,0,0,0,0,0,0,0,0,0,0,0,0,0,0,0,0,0,0,0,0,0,0,0,0,0,0,0,0,0,0,0,0,0,0,0,0,0,0,0,0,0,0,0,0,0,0,0,0,0,0,0,0,0.0133,0.0133,0,0.0086,0.0086,0.0085,0.0059,0.0059,0.0059,0.006,-0.0011,-0.0013,-0.0015,0,0,0,0,0,0,0,0,0,0,0,0,0,0.0175,0.0174,0.0134,0.0133,0.0133,0.0086,0.0086,0.0085,0.0059,0.0059,0.0059,0.006,-0.001,-0.0013,-0.0015,0,0,0,0,0,0,0,0,0,0,0,0,0,0.0144,0.0174,0.0134,0.0115,0.0113,0.0086,0.0086,0.0085,0.0059,0.0059,0.0059,0.006,-0.001,-0.0012,-0.0015,-0.0035,0,0,-0.0024,-0.0025,0,0,0,0,0,0,0,0,0.0146,0.0142,0.0118,0.0116,0.0114,0.008,0.0074,0.0044,0.0059,0.0078,0.006,0.006,0.0018,0.0013,0.0002,-0.0038,-0.0041,-0.0024,-0.0026,-0.0027,-0.0028,0,0,0,0,0,0,0,0.0148,0.0144,0.0113,0.0118,0.0115,0.01,0.0096,0.0068,0.0047,0.0077,0.0075,0.0072,0.0017,0.0005,0.0,-0.0042,-0.0024,-0.0027,-0.0029,-0.003,-0.0079,-0.0079,0,0,0,0,0,0,0.0158,0.0146,0.0115,0.0112,0.0132,0.01,0.0095,0.009,0.0048,0.0042,0.0072,0.0071,0.001,0.0004,-0.0002,0.0007,-0.0027,-0.003,-0.0032,-0.008,-0.0079,-0.0079,0,0,0,0,0,0,0.0159,0.0155,0.0117,0.0129,0.0124,0.0099,0.0093,0.0089,0.0079,0.0044,0.0038,0.0068,0.001,0.0002,-0.002,0.0003,-0.0031,-0.0034,-0.008,-0.0079,-0.0079,0.0003,0,0,0,0,0,0,0.016,0.0156,0.0156,0.013,0.0123,0.0104,0.0093,0.0088,0.0078,0.0076,0.0039,0.0032,0.0009,-0.0015,-0.0022,-0.0002,-0.0036,-0.0081,-0.008,-0.0079,-0.0,0.0006,0.0012,0,0,0,0,0,0.0162,0.0161,0.0156,0.0152,0.0124,0.0104,0.0099,0.0081,0.0078,0.0073,0.0053,0.0033,-0.0015,-0.0017,-0.0026,-0.0006,-0.0081,-0.008,-0.0079,-0.0003,0.0005,0.0012,0,0,0,0,0,0,0.0176,0.0158,0.0152,0.0145,0.0128,0.01,0.0097,0.0084,0.0064,0.0066,0.0033,0.0025,0.0016,-0.0012,-0.0013,-0.0019,-0.0049,-0.005,0.0012,0.0019,0.0025,0.0051,-0.0039,0,0,0,0,0,0.0181,0.0178,0.0156,0.0151,0.0145,0.0122,0.0113,0.0102,0.0081,0.0072,0.0046,0.0024,0.0012,0.0002,-0.0021,-0.0029,-0.0059,-0.0021,-0.0015,-0.0009,0.0005,-0.0024,-0.0019,-0.0075,-0.0075,-0.0075,0,0,0.0184,0.0175,0.0172,0.0154,0.0141,0.0145,0.0117,0.0107,0.0118,0.0067,0.0069,0.0039,0.0013,0.001,0.0004,-0.0008,-0.0012,-0.0008,-0.0003,0.0009,-0.0022,-0.0017,-0.0012,-0.0075,-0.0075,-0.0075,0,0,0.0196,0.0183,0.0189,0.0182,0.0169,0.0159,0.0159,0.0134,0.0131,0.0123,0.01,0.0087,0.0053,0.0048,0.0042,0.0064,0.0019,0.0053,0.0109,0.0081,0.0085,0.0089,0.0051,0.0051,0.0059,0.006,0.006,0,0.0203,0.0212,0.0186,0.0195,0.0205,0.0171,0.0192,0.018,0.0152,0.0161,0.0134,0.011,0.008,0.01,0.0109,0.0082,0.005,0.0087,0.009,0.0093,0.0096,0.0056,0.0055,0.0064,0.0063,0.0063,0.0062,0,0.0221,0.0236,0.024,0.0249,0.025,0.026,0.025,0.0249,0.024,0.0231,0.0236,0.0193,0.0183,0.0172,0.0148,0.0161,0.0126,0.01,0.0076,0.0107,0.0062,0.006,0.0069,0.0068,0.0067,0.0066,0,0,0.0226,0.0251,0.0256,0.0286,0.0288,0.0296,0.0317,0.0334,0.0357,0.0326,0.0353,0.033,0.0301,0.0291,0.0255,0.0233,0.0216,0.018,0.0176,0.0151,0.0142,0.0093,0.0084,0.0186,0.0186,0.0186,0.0102,0,0.0257,0.0305,0.0305,0.036,0.0392,0.0386,0.0414,0.0423,0.0415,0.0421,0.0396,0.0393,0.0349,0.034,0.0316,0.0236,0.0213,0.0241,0.0109,0.0105,0.0065,0.0082,0.0187,0.0099,0.0099,0.0098,0.0098,0,0.028,0.0318,0.0383,0.0447,0.046,0.0485,0.0535,0.0553,0.0553,0.0542,0.0534,0.0494,0.0471,0.0416,0.0321,0.0337,0.0255,0.019,0.0184,0.0112,0.0051,0.0062,0.0092,0.0093,0.0093,0.0093,0.0094,0,0.0318,0.0377,0.0442,0.0461,0.0515,0.0552,0.0581,0.0597,0.0621,0.0615,0.0613,0.0576,0.0543,0.0455,0.0316,0.0316,0.019,0.0169,0.0053,0.0048,0.0082,0.0079,0.0108,0.0108,0.0109,0.0109,0.0109,0,0.0358,0.041,0.0469,0.0506,0.0588,0.0608,0.0679,0.0688,0.0705,0.0724,0.0679,0.0661,0.0548,0.0456,0.0339,0.0181,0.0204,0.007,0.0028,0.0116,0.0117,0.0079,0.0077,0.0106,0.0106,0.0107,0.0107,0,0.0385,0.0421,0.0502,0.058,0.0609,0.0667,0.074,0.0776,0.0783,0.0799,0.0797,0.0723,0.0591,0.0462,0.0294,0.0201,0.006,-0.0002,0.0097,0.0061,-0.0066,-0.0063,-0.0124,-0.0126,-0.0128,-0.013,-0.0131,0,0.0405,0.0448,0.0552,0.0598,0.0636,0.0721,0.0772,0.0812,0.0832,0.0821,0.0816,0.0714,0.0638,0.0381,0.0237,0.002,-0.0015,-0.0077,-0.0056,-0.0052,-0.0087,-0.0081,-0.0076,-0.0134,-0.0135,-0.0135,-0.0136,0,0.0436,0.0469,0.0531,0.0626,0.0694,0.0772,0.0837,0.086,0.0883,0.0894,0.0817,0.0694,0.0538,0.0353,0.018,0.0026,-0.0026,-0.0098,-0.0095,-0.0075,-0.0066,-0.0097,-0.0089,-0.0143,-0.0142,-0.0141,-0.0141,0,0.0448,0.0488,0.0557,0.064,0.0717,0.0775,0.083,0.0846,0.0873,0.0854,0.0819,0.0669,0.0591,0.0353,0.0191,0.0036,0.0001,-0.0034,-0.0034,-0.0029,0.002,0.0048,-0.0023,0,0,0,0,0,0.045,0.0482,0.056,0.0638,0.0711,0.0756,0.0838,0.0879,0.0905,0.085,0.0837,0.0687,0.0446,0.0349,0.0183,0.0146,-0.003,-0.0054,-0.0071,-0.0181,-0.0173,-0.0136,0,0,0,0,0,0,0.0442,0.0504,0.0546,0.0606,0.0654,0.073,0.0786,0.0819,0.0792,0.0798,0.0674,0.0631,0.0399,0.0525,0.0168,0.0123,0.0089,-0.0158,-0.0161,-0.0185,-0.0178,-0.0172,-0.0131,0,0,0,0,0]}]]